Location: Newark
(42.8481°N, 0.4872°E)
Time: 02:31:55
(UTC+00:00)

SR - Pass Details

Date: 31 October 2020
Orbit: 579 x 876 km, 66.7° (Epoch: 26 November)

Event Time Altitude Azimuth Distance (km) Brightness Sun altitude
Rises 12:02:32 0° 305° (NW) 3,158 ? 32.6°
Reaches altitude 10° 12:07:00 10° 268° (W) 2,315 ? 32.5°
Maximum altitude 12:08:08 11° 256° (WSW) 2,288 ? 32.5°
Drops below altitude 10° 12:09:17 10° 244° (WSW) 2,353 ? 32.5°
Sets 12:14:02 0° 208° (SSW) 3,353 ? 32.3°
